TRADE65 KMRY-KHND

Flight info

Callsign TRADE65
Flight time 1h 4m
Altitude 41000
Route MRY5 SHOEY NTELL Q164 CABAB Q174 SKANN Q13 FUULL GAMES2
Aircraft C750/M-SBDE3FGHRWXY/S

Departure

Time 2026-05-06 04:09
Airport Monterey Regional Airport (KMRY)

Arrival

Time 2026-05-06 05:14
Airport Henderson Executive Airport (KHND)
Time Latitude Longitude Altitude Speed Heading
2026-05-06 03:52 36.58892 -121.85417 207 ft 0 kts 291°
2026-05-06 04:03 36.58893 -121.85418 206 ft 0 kts 306°
2026-05-06 04:03 36.58894 -121.85418 206 ft 0 kts 324°
2026-05-06 04:03 36.58900 -121.85413 218 ft 4 kts 39°
2026-05-06 04:04 36.58885 -121.85321 206 ft 16 kts 73°
2026-05-06 04:04 36.58875 -121.85199 208 ft 14 kts 111°
2026-05-06 04:04 36.58840 -121.85094 206 ft 13 kts 112°
2026-05-06 04:04 36.58807 -121.84994 209 ft 12 kts 112°
2026-05-06 04:05 36.58775 -121.84897 206 ft 12 kts 112°
2026-05-06 04:05 36.58744 -121.84805 211 ft 11 kts 112°
2026-05-06 04:05 36.58714 -121.84717 210 ft 11 kts 112°
2026-05-06 04:05 36.58681 -121.84636 206 ft 10 kts 126°
2026-05-06 04:06 36.58648 -121.84564 210 ft 9 kts 114°
2026-05-06 04:06 36.58623 -121.84495 215 ft 9 kts 114°
2026-05-06 04:06 36.58599 -121.84427 206 ft 9 kts 113°
2026-05-06 04:06 36.58575 -121.84356 213 ft 10 kts 112°
2026-05-06 04:07 36.58541 -121.84258 211 ft 14 kts 113°
2026-05-06 04:07 36.58499 -121.84128 206 ft 18 kts 111°
2026-05-06 04:07 36.58448 -121.83970 214 ft 22 kts 113°
2026-05-06 04:07 36.58383 -121.83786 207 ft 25 kts 114°
2026-05-06 04:08 36.58310 -121.83575 206 ft 28 kts 111°
2026-05-06 04:08 36.58288 -121.83477 210 ft 0 kts 97°
2026-05-06 04:08 36.58285 -121.83446 206 ft 11 kts 92°
2026-05-06 04:09 36.58351 -121.83375 210 ft 13 kts 299°
2026-05-06 04:09 36.58481 -121.83788 207 ft 105 kts 292°
2026-05-06 04:09 36.58840 -121.84850 479 ft 145 kts 291°
2026-05-06 04:09 36.59267 -121.86093 1003 ft 166 kts 292°
2026-05-06 04:10 36.59719 -121.87419 1874 ft 165 kts 293°
2026-05-06 04:10 36.60165 -121.88731 2827 ft 166 kts 294°
2026-05-06 04:10 36.60622 -121.90080 3662 ft 171 kts 294°
2026-05-06 04:10 36.61104 -121.91505 4347 ft 190 kts 294°
2026-05-06 04:11 36.61467 -121.92577 4734 ft 208 kts 294°
2026-05-06 04:11 36.62063 -121.94336 5264 ft 233 kts 294°
2026-05-06 04:11 36.62729 -121.96298 5759 ft 259 kts 295°
2026-05-06 04:11 36.63457 -121.98433 6471 ft 271 kts 295°
2026-05-06 04:12 36.64564 -122.00310 7284 ft 272 kts 325°
2026-05-06 04:12 36.66215 -122.01383 8371 ft 268 kts 336°
2026-05-06 04:12 36.67835 -122.02555 9376 ft 270 kts 336°
2026-05-06 04:12 36.69469 -122.03772 10236 ft 275 kts 333°
2026-05-06 04:13 36.71218 -122.04927 10568 ft 295 kts 341°
2026-05-06 04:13 36.73261 -122.05103 11062 ft 298 kts 14°
2026-05-06 04:13 36.75030 -122.03835 11921 ft 299 kts 44°
2026-05-06 04:13 36.76026 -122.01547 12672 ft 309 kts 73°
2026-05-06 04:14 36.76151 -121.98854 13477 ft 315 kts 88°
2026-05-06 04:14 36.76035 -121.96106 14198 ft 319 kts 88°
2026-05-06 04:14 36.76059 -121.93333 14853 ft 321 kts 82°
2026-05-06 04:14 36.76329 -121.90568 15533 ft 322 kts 78°
2026-05-06 04:15 36.76626 -121.87776 16228 ft 327 kts 80°
2026-05-06 04:15 36.76823 -121.84934 16926 ft 331 kts 82°
2026-05-06 04:15 36.77001 -121.82048 17651 ft 335 kts 81°
2026-05-06 04:15 36.77224 -121.79145 18411 ft 338 kts 80°
2026-05-06 04:16 36.77463 -121.76203 18971 ft 346 kts 80°
2026-05-06 04:16 36.77698 -121.73114 19015 ft 370 kts 81°
2026-05-06 04:16 36.77935 -121.69828 19022 ft 391 kts 81°
2026-05-06 04:16 36.78187 -121.66373 19026 ft 409 kts 81°
2026-05-06 04:17 36.78455 -121.62775 19029 ft 425 kts 81°
2026-05-06 04:17 36.78731 -121.59045 19025 ft 439 kts 82°
2026-05-06 04:17 36.79007 -121.55252 19028 ft 450 kts 82°
2026-05-06 04:17 36.79287 -121.51343 19037 ft 438 kts 82°
2026-05-06 04:18 36.79548 -121.47678 19022 ft 424 kts 82°
2026-05-06 04:18 36.79817 -121.44001 19010 ft 413 kts 81°
2026-05-06 04:18 36.80072 -121.40481 19107 ft 401 kts 81°
2026-05-06 04:18 36.80317 -121.37050 19107 ft 394 kts 81°
2026-05-06 04:19 36.80558 -121.33673 19108 ft 387 kts 81°
2026-05-06 04:19 36.80794 -121.30356 19110 ft 382 kts 81°
2026-05-06 04:19 36.81027 -121.27077 19171 ft 377 kts 81°
2026-05-06 04:19 36.81246 -121.23909 20239 ft 353 kts 81°
2026-05-06 04:20 36.81453 -121.20924 21238 ft 345 kts 81°
2026-05-06 04:20 36.81670 -121.17958 21885 ft 349 kts 81°
2026-05-06 04:20 36.81884 -121.14923 22621 ft 352 kts 81°
2026-05-06 04:20 36.82093 -121.11864 23355 ft 356 kts 81°
2026-05-06 04:21 36.82308 -121.08738 24011 ft 359 kts 81°
2026-05-06 04:21 36.82520 -121.05664 24619 ft 361 kts 81°
2026-05-06 04:21 36.82735 -121.02532 25231 ft 363 kts 81°
2026-05-06 04:21 36.82951 -120.99383 25844 ft 365 kts 81°
2026-05-06 04:22 36.83168 -120.96207 26437 ft 368 kts 81°
2026-05-06 04:22 36.83383 -120.93020 27130 ft 368 kts 81°
2026-05-06 04:22 36.83599 -120.89828 27744 ft 371 kts 80°
2026-05-06 04:23 36.84034 -120.83369 28897 ft 376 kts 80°
2026-05-06 04:23 36.84252 -120.80099 29478 ft 379 kts 80°
2026-05-06 04:23 36.84471 -120.76804 30050 ft 382 kts 80°
2026-05-06 04:23 36.84691 -120.73488 30541 ft 385 kts 80°
2026-05-06 04:24 36.84911 -120.70149 31007 ft 387 kts 80°
2026-05-06 04:24 36.85132 -120.66786 31474 ft 390 kts 80°
2026-05-06 04:24 36.85353 -120.63399 31935 ft 393 kts 80°
2026-05-06 04:24 36.85575 -120.59992 32387 ft 395 kts 80°
2026-05-06 04:25 36.85797 -120.56564 32834 ft 398 kts 80°
2026-05-06 04:25 36.86020 -120.53108 33287 ft 400 kts 80°
2026-05-06 04:25 36.86243 -120.49630 33717 ft 403 kts 80°
2026-05-06 04:25 36.86467 -120.46128 34140 ft 406 kts 80°
2026-05-06 04:26 36.86691 -120.42600 34493 ft 409 kts 80°
2026-05-06 04:26 36.86915 -120.39061 35015 ft 408 kts 80°
2026-05-06 04:26 36.87136 -120.35534 35538 ft 407 kts 80°
2026-05-06 04:26 36.87358 -120.32005 36005 ft 408 kts 80°
2026-05-06 04:27 36.87579 -120.28469 36477 ft 409 kts 80°
2026-05-06 04:27 36.87799 -120.24926 36967 ft 409 kts 80°
2026-05-06 04:27 36.88017 -120.21388 37459 ft 409 kts 80°
2026-05-06 04:27 36.88236 -120.17838 37954 ft 410 kts 80°
2026-05-06 04:28 36.88450 -120.14335 38441 ft 410 kts 80°
2026-05-06 04:28 36.88669 -120.10737 38917 ft 411 kts 80°
2026-05-06 04:28 36.88886 -120.07170 39256 ft 413 kts 81°
2026-05-06 04:28 36.89102 -120.03587 39617 ft 415 kts 81°
2026-05-06 04:29 36.89318 -119.99986 39968 ft 416 kts 81°
2026-05-06 04:29 36.89533 -119.96373 40328 ft 418 kts 81°
2026-05-06 04:29 36.89750 -119.92740 40658 ft 421 kts 81°
2026-05-06 04:29 36.90173 -119.89134 40948 ft 419 kts 73°
2026-05-06 04:30 36.91029 -119.85704 41055 ft 422 kts 65°
2026-05-06 04:30 36.93327 -119.78784 41087 ft 440 kts 65°
2026-05-06 04:31 36.95671 -119.71549 41074 ft 457 kts 65°
2026-05-06 04:31 36.98122 -119.64087 41080 ft 470 kts 65°
2026-05-06 04:32 37.00605 -119.56431 41067 ft 479 kts 65°
2026-05-06 04:32 37.03129 -119.48676 41067 ft 482 kts 65°
2026-05-06 04:33 37.05647 -119.40892 41042 ft 483 kts 65°
2026-05-06 04:33 37.08166 -119.33098 41042 ft 483 kts 65°
2026-05-06 04:34 37.10678 -119.25299 41042 ft 483 kts 65°
2026-05-06 04:34 37.13191 -119.17479 41031 ft 483 kts 65°
2026-05-06 04:35 37.15697 -119.09659 41014 ft 483 kts 65°
2026-05-06 04:35 37.18181 -119.01884 41015 ft 483 kts 65°
2026-05-06 04:36 37.20668 -118.94046 40997 ft 484 kts 66°
2026-05-06 04:36 37.22109 -118.85723 40981 ft 493 kts 79°
2026-05-06 04:37 37.23028 -118.77213 40955 ft 492 kts 79°
2026-05-06 04:37 37.23931 -118.68691 40989 ft 494 kts 79°
2026-05-06 04:38 37.24838 -118.60122 40965 ft 497 kts 79°
2026-05-06 04:38 37.25741 -118.51521 40946 ft 498 kts 79°
2026-05-06 04:39 37.26636 -118.42911 41008 ft 498 kts 79°
2026-05-06 04:39 37.27530 -118.34285 41007 ft 499 kts 79°
2026-05-06 04:40 37.28416 -118.25647 41002 ft 499 kts 79°
2026-05-06 04:40 37.29298 -118.16998 40982 ft 499 kts 80°
2026-05-06 04:41 37.30172 -118.08351 40913 ft 499 kts 80°
2026-05-06 04:41 37.31042 -117.99693 40908 ft 500 kts 80°
2026-05-06 04:42 37.31905 -117.91030 40908 ft 500 kts 80°
2026-05-06 04:42 37.32762 -117.82366 40902 ft 500 kts 80°
2026-05-06 04:43 37.33614 -117.73689 40904 ft 499 kts 80°
2026-05-06 04:43 37.34458 -117.65026 40900 ft 500 kts 80°
2026-05-06 04:44 37.35296 -117.56356 40893 ft 500 kts 80°
2026-05-06 04:44 37.36122 -117.47749 40899 ft 500 kts 80°
2026-05-06 04:45 37.36880 -117.39044 40888 ft 503 kts 84°
2026-05-06 04:45 37.36120 -117.30278 40891 ft 511 kts 102°
2026-05-06 04:46 37.33282 -117.22050 40889 ft 519 kts 118°
2026-05-06 04:46 37.28596 -117.15109 40896 ft 528 kts 136°
2026-05-06 04:47 37.22442 -117.10031 40886 ft 533 kts 151°
2026-05-06 04:47 37.15714 -117.06134 40890 ft 533 kts 153°
2026-05-06 04:47 37.12436 -117.04104 40458 ft 516 kts 149°
2026-05-06 04:48 37.09450 -117.01768 39797 ft 497 kts 142°
2026-05-06 04:48 37.06704 -116.99244 39153 ft 481 kts 139°
2026-05-06 04:48 37.04087 -116.96724 38528 ft 468 kts 139°
2026-05-06 04:48 37.01434 -116.94407 37866 ft 463 kts 143°
2026-05-06 04:49 36.98704 -116.92289 37255 ft 462 kts 143°
2026-05-06 04:49 36.95984 -116.90093 36645 ft 467 kts 140°
2026-05-06 04:49 36.93318 -116.87769 36029 ft 470 kts 139°
2026-05-06 04:49 36.90618 -116.85443 35404 ft 470 kts 140°
2026-05-06 04:50 36.87877 -116.83201 34784 ft 471 kts 140°
2026-05-06 04:50 36.85132 -116.80961 34180 ft 472 kts 139°
2026-05-06 04:50 36.82405 -116.78664 33496 ft 473 kts 137°
2026-05-06 04:50 36.79675 -116.76353 32869 ft 475 kts 138°
2026-05-06 04:51 36.76914 -116.74060 32232 ft 478 kts 139°
2026-05-06 04:51 36.74134 -116.71772 31600 ft 480 kts 139°
2026-05-06 04:51 36.71351 -116.69460 30967 ft 482 kts 139°
2026-05-06 04:51 36.68598 -116.67158 30334 ft 485 kts 139°
2026-05-06 04:52 36.65806 -116.64842 29659 ft 477 kts 139°
2026-05-06 04:52 36.63033 -116.62563 29015 ft 470 kts 139°
2026-05-06 04:52 36.60440 -116.60163 28365 ft 456 kts 130°
2026-05-06 04:52 36.58204 -116.57476 27808 ft 452 kts 128°
2026-05-06 04:53 36.55950 -116.54766 27212 ft 449 kts 129°
2026-05-06 04:53 36.53683 -116.52106 26620 ft 446 kts 130°
2026-05-06 04:53 36.51439 -116.49477 26041 ft 442 kts 130°
2026-05-06 04:53 36.49225 -116.46847 25465 ft 436 kts 130°
2026-05-06 04:54 36.47056 -116.44270 24886 ft 429 kts 130°
2026-05-06 04:54 36.44942 -116.41689 24322 ft 424 kts 128°
2026-05-06 04:54 36.42864 -116.39102 23764 ft 422 kts 130°
2026-05-06 04:54 36.40762 -116.36581 23178 ft 419 kts 130°
2026-05-06 04:55 36.38697 -116.34062 22621 ft 415 kts 130°
2026-05-06 04:55 36.36667 -116.31528 22074 ft 413 kts 129°
2026-05-06 04:55 36.34642 -116.29018 21532 ft 411 kts 130°
2026-05-06 04:55 36.32609 -116.26537 21002 ft 408 kts 131°
2026-05-06 04:56 36.30591 -116.24073 20463 ft 405 kts 131°
2026-05-06 04:56 36.29282 -116.22456 20111 ft 403 kts 130°
2026-05-06 04:56 36.26901 -116.18909 19483 ft 399 kts 124°
2026-05-06 04:56 36.25763 -116.17126 19143 ft 397 kts 125°
2026-05-06 04:57 36.24037 -116.14467 18618 ft 395 kts 126°
2026-05-06 04:57 36.22305 -116.11836 18117 ft 393 kts 126°
2026-05-06 04:57 36.20595 -116.09220 17570 ft 390 kts 126°
2026-05-06 04:57 36.18896 -116.06602 17055 ft 388 kts 126°
2026-05-06 04:58 36.17208 -116.04012 16547 ft 386 kts 126°
2026-05-06 04:58 36.15523 -116.01437 16042 ft 382 kts 126°
2026-05-06 04:58 36.13858 -115.98894 15560 ft 380 kts 126°
2026-05-06 04:58 36.12196 -115.96350 15064 ft 378 kts 126°
2026-05-06 04:59 36.10658 -115.93753 14990 ft 376 kts 122°
2026-05-06 04:59 36.09080 -115.91170 14996 ft 377 kts 124°
2026-05-06 04:59 36.07471 -115.88608 15011 ft 377 kts 124°
2026-05-06 04:59 36.05900 -115.86009 15011 ft 377 kts 123°
2026-05-06 05:00 36.04197 -115.83538 14957 ft 383 kts 136°
2026-05-06 05:00 36.01911 -115.81849 14980 ft 388 kts 154°
2026-05-06 05:00 35.99362 -115.80748 15013 ft 389 kts 159°
2026-05-06 05:00 35.96792 -115.79733 15020 ft 387 kts 160°
2026-05-06 05:01 35.94231 -115.78699 15016 ft 387 kts 159°
2026-05-06 05:01 35.91679 -115.77628 15013 ft 387 kts 159°
2026-05-06 05:01 35.89130 -115.76568 15017 ft 387 kts 159°
2026-05-06 05:01 35.86569 -115.75525 14871 ft 388 kts 159°
2026-05-06 05:02 35.84011 -115.74483 14485 ft 385 kts 159°
2026-05-06 05:02 35.81480 -115.73442 14070 ft 383 kts 159°
2026-05-06 05:02 35.78981 -115.72345 13625 ft 379 kts 154°
2026-05-06 05:02 35.76853 -115.70523 13173 ft 369 kts 133°
2026-05-06 05:03 35.75194 -115.68146 12817 ft 366 kts 126°
2026-05-06 05:03 35.73621 -115.65699 12428 ft 363 kts 125°
2026-05-06 05:03 35.72074 -115.63300 11985 ft 361 kts 126°
2026-05-06 05:03 35.70563 -115.60948 11572 ft 333 kts 123°
2026-05-06 05:04 35.69602 -115.58528 11164 ft 302 kts 104°
2026-05-06 05:04 35.69347 -115.56023 10269 ft 290 kts 88°
2026-05-06 05:04 35.69315 -115.53584 9385 ft 282 kts 89°
2026-05-06 05:04 35.69270 -115.51197 8517 ft 283 kts 89°
2026-05-06 05:05 35.69224 -115.48828 8315 ft 277 kts 89°
2026-05-06 05:05 35.69184 -115.46422 8144 ft 281 kts 89°
2026-05-06 05:05 35.69143 -115.44011 7942 ft 282 kts 89°
2026-05-06 05:05 35.69097 -115.41630 7690 ft 267 kts 89°
2026-05-06 05:06 35.69057 -115.39414 7447 ft 255 kts 89°
2026-05-06 05:06 35.69374 -115.37307 7118 ft 254 kts 62°
2026-05-06 05:06 35.70600 -115.35849 6964 ft 245 kts 28°
2026-05-06 05:06 35.71847 -115.34383 6991 ft 253 kts 58°
2026-05-06 05:07 35.72495 -115.32366 7069 ft 254 kts 71°
2026-05-06 05:07 35.73031 -115.30314 7058 ft 252 kts 71°
2026-05-06 05:07 35.73574 -115.28272 7052 ft 252 kts 71°
2026-05-06 05:07 35.74124 -115.26222 7035 ft 252 kts 71°
2026-05-06 05:08 35.74670 -115.24174 7033 ft 252 kts 71°
2026-05-06 05:08 35.75218 -115.22126 7035 ft 251 kts 71°
2026-05-06 05:08 35.75735 -115.20118 6988 ft 238 kts 72°
2026-05-06 05:08 35.76190 -115.18266 6744 ft 218 kts 73°
2026-05-06 05:09 35.76598 -115.16520 6360 ft 209 kts 74°
2026-05-06 05:09 35.76983 -115.14843 6112 ft 197 kts 74°
2026-05-06 05:09 35.77358 -115.13254 5765 ft 189 kts 66°
2026-05-06 05:09 35.78155 -115.11996 5557 ft 191 kts 35°
2026-05-06 05:10 35.79355 -115.11423 5562 ft 180 kts
2026-05-06 05:10 35.80575 -115.11436 5528 ft 172 kts 351°
2026-05-06 05:10 35.81751 -115.11584 5535 ft 167 kts 351°
2026-05-06 05:10 35.82903 -115.11722 5438 ft 169 kts 349°
2026-05-06 05:11 35.84078 -115.11813 5392 ft 169 kts 353°
2026-05-06 05:11 35.85228 -115.11882 5446 ft 163 kts 352°
2026-05-06 05:11 35.86401 -115.11962 5331 ft 174 kts 352°
2026-05-06 05:11 35.87619 -115.12073 5217 ft 176 kts 349°
2026-05-06 05:12 35.88760 -115.12279 5052 ft 157 kts 343°
2026-05-06 05:12 35.89790 -115.12519 4863 ft 147 kts 346°
2026-05-06 05:12 35.90757 -115.12774 4580 ft 136 kts 340°
2026-05-06 05:12 35.91665 -115.13046 4230 ft 136 kts 344°
2026-05-06 05:13 35.92601 -115.13237 3912 ft 136 kts 343°
2026-05-06 05:13 35.93548 -115.13426 3535 ft 138 kts 347°
2026-05-06 05:13 35.94503 -115.13559 3157 ft 137 kts 357°
2026-05-06 05:13 35.95443 -115.13562 2777 ft 135 kts 356°
2026-05-06 05:14 35.96363 -115.13554 2504 ft 128 kts 357°
2026-05-06 05:14 35.97116 -115.13547 2454 ft 78 kts
2026-05-06 05:14 35.97434 -115.13543 2444 ft 13 kts 341°
2026-05-06 05:14 35.97439 -115.13562 2446 ft 2 kts 270°
2026-05-06 05:15 35.97439 -115.13579 2444 ft 2 kts 271°
2026-05-06 05:15 35.97441 -115.13609 2444 ft 7 kts 274°
2026-05-06 05:15 35.97443 -115.13694 2444 ft 13 kts 271°
2026-05-06 05:15 35.97447 -115.13838 2443 ft 19 kts 271°
2026-05-06 05:16 35.97464 -115.13909 2443 ft 5 kts 336°
2026-05-06 05:16 35.97471 -115.13920 2442 ft 1 kts 263°
2026-05-06 05:16 35.97465 -115.13920 2443 ft 0 kts 171°